User: anonymous   Login
Location: Columbia
(38.9520°N, 92.3340°W)
Time: 18:24:45
(UTC-06:00)
Language:

Iridium 22 - Orbit

View from above orbital plane
View from above orbital plane
View from above satellite
View from above satellite

Ground track
Ground track

The orbit data is extracted from the following two-line orbital elements,

1 24907U 97043E   14354.43719069  .00001019  00000-0  35661-3 0  1044
2 24907 086.3987 276.2622 0002172 098.6826 040.3157 14.34222332907432
Epoch (UTC): 20 December 2014 10:29:33
Eccentricity: 0.0002172
inclination: 86.3987°
perigee height: 776 km
apogee height: 779 km
right ascension of ascending node: 276.2622°
argument of perigee: 98.6826°
revolutions per day: 14.34222332
mean anomaly at epoch: 40.3157°
orbit number at epoch: 90743

The dashed part of the orbit path shows where the satellite is in the earth's shadow,  

DLR